Preview of NWS' New Version of Forecast
This preview is not operational and should not be used for support decisions.

Regional Weather Roundup (RWR)

Issued by National Weather Service (NWS)

                            
000
ASCA42 TJSJ 212110
RWRPR 
PUERTO RICO/U.S. VIRGIN ISLANDS HOURLY WEATHER ROUNDUP
NATIONAL WEATHER SERVICE SAN JUAN PR
500 PM AST SUN APR 21 2019

PRZ001>002-007>008-010-212200-
PUERTO RICO
  
CITY           SKY/WX    TMP DP  RH WIND       PRES   REMARKS
SAN JUAN LMM   MOSUNNY   82  70  65 E16       30.00S                  
AGUADILLA      CLOUDY    73  72  94 SW6       30.02F                  
CEIBA          SUNNY     84  70  61 MISG      30.01F                  
$$

VIZ001>002-212200-
U.S. VIRGIN ISLANDS
  
CITY           SKY/WX    TMP DP  RH WIND       PRES   REMARKS
CHARLOTTE AMA  MOSUNNY   81  70  69 E13       30.00S                  
CHRISTIANSTED  MOSUNNY   82  68  61 E16       29.99S                  
$$

HOURLY WEATHER ROUNDUP FOR THE NEWS MEDIA
  
CITY           SKY/WX    TMP DP  RH WIND       PRES   REMARKS
ORLANDO        FAIR      76  39  26 W8        30.09F                  
NEW YORK       PTSUNNY   57  49  74 SE14      30.03S                  
NEWARK         PTSUNNY   59  48  67 E8        30.01R                  
CHICAGO        FAIR      77  39  25 S13       29.96F                  
HARTFORD       FAIR      64  57  78 S16       30.06R                  
BOSTON         PTSUNNY   61  55  81 E7        30.02F                  
DALLAS         MOSUNNY   81  56  42 S20G30    29.91F                  
PHILADELPHIA   PTSUNNY   69  42  37 S7        29.99R                  
LOS ANGELES    FAIR      65  49  56 W16       30.01F                  
WASHINGTON DC  PTSUNNY   64  44  48 NW12      30.00R